Location: Newark
(46.7000°N, 60.6000°W)
Time: 14:33:44
(UTC+00:00)

A-11 Canister half - Pass Details

Date: 09 November 2020
Orbit: 1516 x 1684 km, 47.2° (Epoch: 03 December)

Event Time Altitude Azimuth Distance (km) Brightness Sun altitude
Rises 02:32:16 0° 289° (WNW) 4,932 12.0 -56.6°
Reaches altitude 10° 02:35:30 10° 287° (WNW) 3,931 11.4 -56.9°
Enters shadow 02:37:13 17° 285° (WNW) 3,412 11.0 -57.0°
